EJA464 KJAX-KFLL

Flight info

Callsign EJA464
Flight time 0h 56m
Altitude 30000
Route EXBOX2 EXBOX PRMUS CUUDA3
Aircraft E55P/M-SBDFGHJ2RWY/LB2

Departure

Time 2026-05-03 21:07
Airport Jacksonville International Airport (KJAX)

Arrival

Time 2026-05-03 22:03
Airport Fort Lauderdale Hollywood International Airport (KFLL)
Time Latitude Longitude Altitude Speed Heading
2026-05-03 20:48 30.49786 -81.67818 33 ft 0 kts 101°
2026-05-03 20:52 30.49778 -81.67822 33 ft 0 kts 101°
2026-05-03 21:00 30.49779 -81.67816 33 ft 2 kts 59°
2026-05-03 21:00 30.49785 -81.67812 33 ft 4 kts
2026-05-03 21:00 30.49839 -81.67893 33 ft 9 kts 304°
2026-05-03 21:00 30.49912 -81.67927 33 ft 14 kts 341°
2026-05-03 21:01 30.50021 -81.67971 33 ft 18 kts 340°
2026-05-03 21:01 30.50051 -81.68023 33 ft 8 kts 257°
2026-05-03 21:01 30.50024 -81.68111 33 ft 14 kts 250°
2026-05-03 21:01 30.49983 -81.68246 33 ft 19 kts 250°
2026-05-03 21:02 30.49936 -81.68400 33 ft 21 kts 250°
2026-05-03 21:02 30.49883 -81.68575 33 ft 23 kts 250°
2026-05-03 21:02 30.49827 -81.68757 33 ft 23 kts 250°
2026-05-03 21:02 30.49771 -81.68937 33 ft 23 kts 250°
2026-05-03 21:03 30.49717 -81.69115 33 ft 23 kts 250°
2026-05-03 21:03 30.49664 -81.69290 33 ft 23 kts 251°
2026-05-03 21:03 30.49610 -81.69468 33 ft 23 kts 250°
2026-05-03 21:03 30.49557 -81.69640 33 ft 22 kts 250°
2026-05-03 21:04 30.49504 -81.69817 33 ft 22 kts 251°
2026-05-03 21:04 30.49452 -81.69916 33 ft 11 kts 194°
2026-05-03 21:04 30.49371 -81.69935 33 ft 12 kts 190°
2026-05-03 21:04 30.49298 -81.69988 33 ft 12 kts 221°
2026-05-03 21:05 30.49275 -81.70010 33 ft 0 kts 221°
2026-05-03 21:05 30.49262 -81.70024 33 ft 6 kts 220°
2026-05-03 21:05 30.49207 -81.70061 33 ft 10 kts 166°
2026-05-03 21:06 30.49184 -81.70041 33 ft 0 kts 131°
2026-05-03 21:06 30.49180 -81.70036 33 ft 7 kts 131°
2026-05-03 21:06 30.48960 -81.69737 33 ft 90 kts 130°
2026-05-03 21:07 30.48415 -81.69008 268 ft 131 kts 129°
2026-05-03 21:07 30.47797 -81.68256 983 ft 136 kts 130°
2026-05-03 21:07 30.47046 -81.67333 1260 ft 181 kts 130°
2026-05-03 21:07 30.46103 -81.66183 1894 ft 207 kts 131°
2026-05-03 21:08 30.45078 -81.64914 2101 ft 220 kts 129°
2026-05-03 21:08 30.43972 -81.63545 2119 ft 252 kts 130°
2026-05-03 21:08 30.42725 -81.61968 2625 ft 274 kts 129°
2026-05-03 21:08 30.41449 -81.60319 2907 ft 268 kts 129°
2026-05-03 21:09 30.40227 -81.58767 2934 ft 251 kts 129°
2026-05-03 21:09 30.39033 -81.57242 2947 ft 258 kts 129°
2026-05-03 21:09 30.37795 -81.55667 2959 ft 267 kts 130°
2026-05-03 21:09 30.36547 -81.54072 2952 ft 263 kts 130°
2026-05-03 21:10 30.35319 -81.52499 2950 ft 262 kts 130°
2026-05-03 21:10 30.34052 -81.50852 3569 ft 267 kts 130°
2026-05-03 21:10 30.32783 -81.49287 4163 ft 274 kts 133°
2026-05-03 21:10 30.31398 -81.47729 5029 ft 279 kts 135°
2026-05-03 21:11 30.29968 -81.46204 5925 ft 283 kts 136°
2026-05-03 21:11 30.28525 -81.44679 6717 ft 289 kts 137°
2026-05-03 21:11 30.27031 -81.43108 7543 ft 293 kts 139°
2026-05-03 21:11 30.25524 -81.41524 8357 ft 297 kts 139°
2026-05-03 21:12 30.23968 -81.39889 9116 ft 304 kts 140°
2026-05-03 21:12 30.22411 -81.38260 9902 ft 308 kts 141°
2026-05-03 21:12 30.20804 -81.36574 10355 ft 325 kts 141°
2026-05-03 21:12 30.19036 -81.34734 10396 ft 354 kts 141°
2026-05-03 21:13 30.17151 -81.32759 10511 ft 376 kts 141°
2026-05-03 21:13 30.15167 -81.30668 10861 ft 388 kts 141°
2026-05-03 21:13 30.13173 -81.28588 11528 ft 389 kts 142°
2026-05-03 21:13 30.11146 -81.26466 12234 ft 389 kts 142°
2026-05-03 21:14 30.09156 -81.24383 12773 ft 393 kts 142°
2026-05-03 21:14 30.07112 -81.22248 13284 ft 398 kts 142°
2026-05-03 21:14 30.05016 -81.20081 13877 ft 398 kts 145°
2026-05-03 21:14 30.02662 -81.18621 14512 ft 383 kts 170°
2026-05-03 21:15 30.00114 -81.18252 14889 ft 359 kts 181°
2026-05-03 21:15 29.97519 -81.17990 14963 ft 390 kts 181°
2026-05-03 21:15 29.94768 -81.17716 15788 ft 398 kts 180°
2026-05-03 21:15 29.92145 -81.17435 16958 ft 370 kts 181°
2026-05-03 21:16 29.89545 -81.17165 17286 ft 377 kts 180°
2026-05-03 21:16 29.86960 -81.16303 17679 ft 400 kts 157°
2026-05-03 21:16 29.84643 -81.14449 18317 ft 402 kts 152°
2026-05-03 21:16 29.82269 -81.12618 18389 ft 416 kts 152°
2026-05-03 21:17 29.79679 -81.11181 18443 ft 418 kts 165°
2026-05-03 21:17 29.77876 -81.10304 18747 ft 421 kts 162°
2026-05-03 21:17 29.74303 -81.08554 19645 ft 413 kts 163°
2026-05-03 21:17 29.71672 -81.07258 20225 ft 411 kts 164°
2026-05-03 21:18 29.69045 -81.05969 21059 ft 401 kts 164°
2026-05-03 21:18 29.66731 -81.04805 23243 ft 352 kts 166°
2026-05-03 21:18 29.64572 -81.03753 24310 ft 337 kts 168°
2026-05-03 21:18 29.62334 -81.02683 24423 ft 354 kts 167°
2026-05-03 21:19 29.60028 -81.01570 24524 ft 369 kts 167°
2026-05-03 21:19 29.57660 -81.00407 25145 ft 367 kts 167°
2026-05-03 21:19 29.55328 -80.99259 25826 ft 364 kts 167°
2026-05-03 21:19 29.52979 -80.98119 26237 ft 368 kts 167°
2026-05-03 21:20 29.50588 -80.96950 26653 ft 372 kts 167°
2026-05-03 21:20 29.48206 -80.95789 27071 ft 375 kts 167°
2026-05-03 21:20 29.45993 -80.94707 27507 ft 376 kts 167°
2026-05-03 21:20 29.43678 -80.93581 27964 ft 377 kts 167°
2026-05-03 21:21 29.41272 -80.92406 28347 ft 380 kts 168°
2026-05-03 21:21 29.38819 -80.91213 28798 ft 381 kts 168°
2026-05-03 21:21 29.36375 -80.90023 29207 ft 383 kts 168°
2026-05-03 21:21 29.33908 -80.88821 29539 ft 387 kts 168°
2026-05-03 21:22 29.31407 -80.87611 29909 ft 389 kts 168°
2026-05-03 21:22 29.28950 -80.86404 30048 ft 379 kts 168°
2026-05-03 21:22 29.24008 -80.84019 30094 ft 390 kts 168°
2026-05-03 21:23 29.19106 -80.81635 30083 ft 392 kts 168°
2026-05-03 21:23 29.14097 -80.79211 30085 ft 392 kts 168°
2026-05-03 21:24 29.09126 -80.76803 30071 ft 386 kts 168°
2026-05-03 21:24 29.04153 -80.74399 30077 ft 389 kts 168°
2026-05-03 21:25 28.99162 -80.71992 30082 ft 389 kts 168°
2026-05-03 21:25 28.94171 -80.69679 30071 ft 390 kts 170°
2026-05-03 21:26 28.89138 -80.67423 30074 ft 387 kts 170°
2026-05-03 21:26 28.84137 -80.65188 30072 ft 385 kts 169°
2026-05-03 21:27 28.79125 -80.62942 30075 ft 388 kts 170°
2026-05-03 21:27 28.74090 -80.60695 30065 ft 388 kts 169°
2026-05-03 21:28 28.69100 -80.58472 30070 ft 385 kts 170°
2026-05-03 21:28 28.64075 -80.56235 30069 ft 390 kts 170°
2026-05-03 21:29 28.59058 -80.53996 30061 ft 384 kts 170°
2026-05-03 21:29 28.54105 -80.51797 30068 ft 387 kts 169°
2026-05-03 21:30 28.49268 -80.49648 30056 ft 385 kts 170°
2026-05-03 21:30 28.44250 -80.47425 30050 ft 387 kts 169°
2026-05-03 21:31 28.39253 -80.45209 30052 ft 386 kts 169°
2026-05-03 21:31 28.34229 -80.42980 30053 ft 384 kts 169°
2026-05-03 21:32 28.29212 -80.40764 30044 ft 386 kts 169°
2026-05-03 21:32 28.24227 -80.38559 30045 ft 386 kts 169°
2026-05-03 21:33 28.19190 -80.36338 30043 ft 390 kts 169°
2026-05-03 21:33 28.14158 -80.34118 30031 ft 388 kts 170°
2026-05-03 21:34 28.09167 -80.31924 30027 ft 383 kts 171°
2026-05-03 21:34 28.04164 -80.29973 30021 ft 381 kts 172°
2026-05-03 21:35 27.99275 -80.28062 30018 ft 382 kts 172°
2026-05-03 21:35 27.94261 -80.26104 30016 ft 382 kts 172°
2026-05-03 21:36 27.89295 -80.24166 30017 ft 381 kts 172°
2026-05-03 21:36 27.84218 -80.22183 30018 ft 383 kts 172°
2026-05-03 21:37 27.79200 -80.20231 30024 ft 381 kts 172°
2026-05-03 21:37 27.74147 -80.18265 30035 ft 383 kts 172°
2026-05-03 21:38 27.69099 -80.16306 30021 ft 385 kts 171°
2026-05-03 21:38 27.64041 -80.14339 30028 ft 390 kts 171°
2026-05-03 21:39 27.58809 -80.12231 30038 ft 403 kts 169°
2026-05-03 21:39 27.53481 -80.10036 30031 ft 412 kts 169°
2026-05-03 21:40 27.48040 -80.07790 30026 ft 420 kts 168°
2026-05-03 21:40 27.42521 -80.05518 30022 ft 426 kts 168°
2026-05-03 21:41 27.39766 -80.04382 29715 ft 415 kts 168°
2026-05-03 21:41 27.37017 -80.03364 28637 ft 414 kts 173°
2026-05-03 21:41 27.34254 -80.02548 28105 ft 407 kts 172°
2026-05-03 21:41 27.31589 -80.01733 28010 ft 389 kts 172°
2026-05-03 21:42 27.26320 -80.00132 28023 ft 400 kts 172°
2026-05-03 21:42 27.20979 -79.98231 27750 ft 397 kts 169°
2026-05-03 21:43 27.18300 -79.97266 26938 ft 406 kts 169°
2026-05-03 21:43 27.15605 -79.96298 25417 ft 431 kts 169°
2026-05-03 21:43 27.12672 -79.95251 23542 ft 454 kts 168°
2026-05-03 21:43 27.09764 -79.94183 22326 ft 433 kts 168°
2026-05-03 21:44 27.06958 -79.93176 21404 ft 424 kts 167°
2026-05-03 21:44 27.04201 -79.92057 20460 ft 419 kts 166°
2026-05-03 21:44 27.01473 -79.90966 19462 ft 415 kts 165°
2026-05-03 21:44 26.98798 -79.89883 18495 ft 411 kts 166°
2026-05-03 21:45 26.96119 -79.88802 17553 ft 404 kts 165°
2026-05-03 21:45 26.93523 -79.87749 16734 ft 393 kts 165°
2026-05-03 21:45 26.91119 -79.86773 16738 ft 351 kts 165°
2026-05-03 21:45 26.88868 -79.85864 16307 ft 341 kts 166°
2026-05-03 21:46 26.86626 -79.84971 15680 ft 343 kts 165°
2026-05-03 21:46 26.84344 -79.84056 15053 ft 343 kts 165°
2026-05-03 21:46 26.82111 -79.83157 14498 ft 339 kts 165°
2026-05-03 21:46 26.79922 -79.82275 14271 ft 332 kts 165°
2026-05-03 21:47 26.77761 -79.81403 13951 ft 329 kts 165°
2026-05-03 21:47 26.75620 -79.80545 13623 ft 326 kts 165°
2026-05-03 21:47 26.73483 -79.79687 13292 ft 324 kts 165°
2026-05-03 21:47 26.71360 -79.78840 13028 ft 318 kts 167°
2026-05-03 21:48 26.69292 -79.78651 12979 ft 293 kts 195°
2026-05-03 21:48 26.67310 -79.79421 13009 ft 305 kts 204°
2026-05-03 21:48 26.65257 -79.80235 12997 ft 316 kts 204°
2026-05-03 21:48 26.63213 -79.81060 12967 ft 309 kts 203°
2026-05-03 21:49 26.61213 -79.81874 12484 ft 302 kts 204°
2026-05-03 21:49 26.59251 -79.82671 11917 ft 297 kts 204°
2026-05-03 21:49 26.57318 -79.83459 11296 ft 296 kts 204°
2026-05-03 21:49 26.55421 -79.84234 11022 ft 283 kts 205°
2026-05-03 21:50 26.53639 -79.85066 10722 ft 279 kts 207°
2026-05-03 21:50 26.51733 -79.85970 10386 ft 299 kts 206°
2026-05-03 21:50 26.49837 -79.86859 10019 ft 293 kts 206°
2026-05-03 21:50 26.47988 -79.87729 9673 ft 288 kts 206°
2026-05-03 21:51 26.46232 -79.88554 9353 ft 286 kts 206°
2026-05-03 21:51 26.44376 -79.89429 9016 ft 286 kts 206°
2026-05-03 21:51 26.42555 -79.90283 8678 ft 286 kts 206°
2026-05-03 21:51 26.40717 -79.91148 8345 ft 285 kts 206°
2026-05-03 21:52 26.38884 -79.92004 8039 ft 283 kts 205°
2026-05-03 21:52 26.37187 -79.92991 7971 ft 267 kts 214°
2026-05-03 21:52 26.35571 -79.94033 7965 ft 270 kts 212°
2026-05-03 21:52 26.33946 -79.95084 7968 ft 271 kts 213°
2026-05-03 21:53 26.32300 -79.96137 7962 ft 271 kts 213°
2026-05-03 21:53 26.30667 -79.97188 7968 ft 271 kts 212°
2026-05-03 21:53 26.29038 -79.98231 7966 ft 261 kts 212°
2026-05-03 21:53 26.27540 -79.99190 7949 ft 238 kts 213°
2026-05-03 21:54 26.26156 -80.00078 7947 ft 220 kts 213°
2026-05-03 21:54 26.24820 -80.00942 7961 ft 224 kts 213°
2026-05-03 21:54 26.23453 -80.01819 7966 ft 227 kts 213°
2026-05-03 21:54 26.22074 -80.02708 7954 ft 228 kts 213°
2026-05-03 21:55 26.20663 -80.03614 7480 ft 238 kts 213°
2026-05-03 21:55 26.19227 -80.04536 6963 ft 234 kts 213°
2026-05-03 21:55 26.18021 -80.05608 6443 ft 218 kts 239°
2026-05-03 21:55 26.17496 -80.07173 6088 ft 218 kts 252°
2026-05-03 21:56 26.16997 -80.08775 5989 ft 218 kts 251°
2026-05-03 21:56 26.16512 -80.10376 5974 ft 220 kts 251°
2026-05-03 21:56 26.16023 -80.11989 5964 ft 219 kts 251°
2026-05-03 21:56 26.15536 -80.13598 5961 ft 220 kts 251°
2026-05-03 21:57 26.15064 -80.15215 5910 ft 219 kts 258°
2026-05-03 21:57 26.15027 -80.16913 5910 ft 220 kts 271°
2026-05-03 21:57 26.15031 -80.18606 5902 ft 220 kts 269°
2026-05-03 21:57 26.15041 -80.20315 5784 ft 225 kts 270°
2026-05-03 21:58 26.15046 -80.22082 5290 ft 231 kts 270°
2026-05-03 21:58 26.15054 -80.23820 4755 ft 221 kts 270°
2026-05-03 21:58 26.15061 -80.25491 4259 ft 216 kts 270°
2026-05-03 21:58 26.15066 -80.27172 3785 ft 221 kts 271°
2026-05-03 21:59 26.15076 -80.28909 3356 ft 227 kts 271°
2026-05-03 21:59 26.14795 -80.30618 2960 ft 228 kts 240°
2026-05-03 21:59 26.13629 -80.31646 2909 ft 213 kts 195°
2026-05-03 21:59 26.12207 -80.31654 2673 ft 205 kts 171°
2026-05-03 22:00 26.10936 -80.31033 2184 ft 196 kts 129°
2026-05-03 22:00 26.10234 -80.29795 1837 ft 185 kts 121°
2026-05-03 22:00 26.09478 -80.28653 1809 ft 184 kts 123°
2026-05-03 22:00 26.08701 -80.27483 1786 ft 188 kts 123°
2026-05-03 22:01 26.07925 -80.26300 1621 ft 196 kts 118°
2026-05-03 22:01 26.07651 -80.24904 1438 ft 183 kts 81°
2026-05-03 22:01 26.07737 -80.23493 1210 ft 181 kts 88°
2026-05-03 22:01 26.07724 -80.22165 1041 ft 160 kts 88°
2026-05-03 22:02 26.07718 -80.20991 806 ft 141 kts 88°
2026-05-03 22:02 26.07713 -80.19978 634 ft 122 kts 88°
2026-05-03 22:02 26.07701 -80.19076 455 ft 109 kts 87°
2026-05-03 22:02 26.07701 -80.18225 371 ft 113 kts 87°
2026-05-03 22:03 26.07699 -80.17342 220 ft 113 kts 87°
2026-05-03 22:03 26.07692 -80.16468 42 ft 113 kts 88°
2026-05-03 22:03 26.07692 -80.15660 8 ft 95 kts 89°
2026-05-03 22:03 26.07686 -80.15102 7 ft 36 kts 92°
2026-05-03 22:04 26.07678 -80.14871 7 ft 31 kts 96°
2026-05-03 22:04 26.07629 -80.14626 7 ft 26 kts 112°
2026-05-03 22:04 26.07592 -80.14589 7 ft 0 kts 187°
2026-05-03 22:07 26.07564 -80.14621 7 ft 12 kts 248°
2026-05-03 22:07 26.07561 -80.14760 7 ft 20 kts 270°
2026-05-03 22:07 26.07562 -80.14919 7 ft 20 kts 270°
2026-05-03 22:07 26.07563 -80.15083 7 ft 21 kts 270°
2026-05-03 22:08 26.07565 -80.15228 7 ft 8 kts 271°
2026-05-03 22:08 26.07565 -80.15264 7 ft 2 kts 263°
2026-05-03 22:08 26.07533 -80.15298 7 ft 12 kts 190°
2026-05-03 22:08 26.07420 -80.15300 7 ft 17 kts 180°
2026-05-03 22:09 26.07300 -80.15301 7 ft 17 kts 180°
2026-05-03 22:09 26.07170 -80.15302 7 ft 19 kts 180°
2026-05-03 22:09 26.07101 -80.15318 7 ft 7 kts 252°
2026-05-03 22:10 26.07185 -80.15470 7 ft 8 kts 206°
2026-05-03 22:10 26.07131 -80.15446 7 ft 8 kts 177°
2026-05-03 22:10 26.07104 -80.15472 7 ft 0 kts 228°